Time,TemperatureF,DewpointF,PressureIn,WindDirection,WindDirectionDegrees,WindSpeedMPH,WindSpeedGustMPH,Humidity,HourlyPrecipIn,Conditions,Clouds,dailyrainin,SoftwareType,DateUTC
2013-11-21 00:01:00,32.4,27.8,30.39,SE,126,0.0,0.0,83,0.00,,,0.00,Wunderground v.1.13,2013-11-21 05:01:00,
2013-11-21 00:02:00,32.4,27.8,30.39,SE,126,0.0,0.0,83,0.00,,,0.00,Wunderground v.1.13,2013-11-21 05:02:00,
2013-11-21 00:03:00,32.4,27.8,30.39,SE,126,0.0,0.0,83,0.00,,,0.00,Wunderground v.1.13,2013-11-21 05:03:00,
2013-11-21 00:05:00,32.4,27.8,30.39,SE,126,0.0,0.0,83,0.00,,,0.00,Wunderground v.1.13,2013-11-21 05:05:00,
2013-11-21 00:07:00,32.3,27.7,30.39,SE,126,0.0,0.0,83,0.00,,,0.00,Wunderground v.1.13,2013-11-21 05:07:00,
2013-11-21 00:13:00,32.3,27.7,30.39,SE,126,0.0,0.0,83,0.00,,,0.00,Wunderground v.1.13,2013-11-21 05:13:00,
2013-11-21 00:19:00,32.2,27.6,30.39,SE,126,0.0,0.0,83,0.00,,,0.00,Wunderground v.1.13,2013-11-21 05:19:00,
2013-11-21 00:24:00,32.1,27.5,30.39,SE,126,0.0,0.0,83,0.00,,,0.00,Wunderground v.1.13,2013-11-21 05:24:00,
2013-11-21 00:30:00,32.1,27.5,30.39,SE,126,0.0,0.0,83,0.00,,,0.00,Wunderground v.1.13,2013-11-21 05:30:00,
2013-11-21 00:35:00,32.1,27.5,30.39,SE,126,0.0,0.0,83,0.00,,,0.00,Wunderground v.1.13,2013-11-21 05:35:00,
2013-11-21 00:41:00,32.0,27.7,30.39,SE,126,0.0,0.0,84,0.00,,,0.00,Wunderground v.1.13,2013-11-21 05:41:00,
2013-11-21 00:46:00,31.9,27.6,30.39,SE,126,0.0,0.0,84,0.00,,,0.00,Wunderground v.1.13,2013-11-21 05:46:00,
2013-11-21 00:52:00,31.9,27.6,30.39,SE,126,0.0,0.0,84,0.00,,,0.00,Wunderground v.1.13,2013-11-21 05:52:00,
2013-11-21 00:57:00,31.9,27.6,30.39,SE,126,0.0,0.0,84,0.00,,,0.00,Wunderground v.1.13,2013-11-21 05:57:00,
2013-11-21 00:58:00,31.9,27.6,30.39,SE,126,0.0,0.0,84,0.00,,,0.00,Wunderground v.1.13,2013-11-21 05:58:00,
2013-11-21 01:03:00,31.8,27.5,30.38,SE,126,0.0,0.0,84,0.00,,,0.00,Wunderground v.1.13,2013-11-21 06:03:00,
2013-11-21 01:09:00,31.8,27.8,30.39,SE,126,0.0,0.0,85,0.00,,,0.00,Wunderground v.1.13,2013-11-21 06:09:00,
2013-11-21 01:15:00,31.7,27.7,30.39,SE,126,0.0,0.0,85,0.00,,,0.00,Wunderground v.1.13,2013-11-21 06:15:00,
2013-11-21 01:21:00,31.7,27.7,30.39,SE,126,0.0,0.0,85,0.00,,,0.00,Wunderground v.1.13,2013-11-21 06:21:00,
2013-11-21 01:26:00,31.6,27.6,30.39,SE,126,0.0,0.0,85,0.00,,,0.00,Wunderground v.1.13,2013-11-21 06:26:00,
2013-11-21 01:32:00,31.5,27.5,30.39,SE,126,0.0,0.0,85,0.00,,,0.00,Wunderground v.1.13,2013-11-21 06:32:00,
2013-11-21 01:38:00,31.5,27.5,30.39,SE,126,0.0,0.0,85,0.00,,,0.00,Wunderground v.1.13,2013-11-21 06:38:00,
2013-11-21 01:44:00,31.5,27.5,30.40,SE,126,0.0,0.0,85,0.00,,,0.00,Wunderground v.1.13,2013-11-21 06:44:00,
2013-11-21 01:49:00,31.5,27.8,30.40,SE,126,0.0,0.0,86,0.00,,,0.00,Wunderground v.1.13,2013-11-21 06:49:00,
2013-11-21 01:55:00,31.4,27.7,30.40,SE,126,0.0,0.0,86,0.00,,,0.00,Wunderground v.1.13,2013-11-21 06:55:00,
2013-11-21 02:01:00,31.4,27.7,30.40,SE,126,0.0,0.0,86,0.00,,,0.00,Wunderground v.1.13,2013-11-21 07:01:00,
2013-11-21 02:07:00,31.4,27.7,30.40,SE,126,0.0,0.0,86,0.00,,,0.00,Wunderground v.1.13,2013-11-21 07:07:00,
2013-11-21 02:12:00,31.5,27.8,30.40,SE,126,0.0,0.0,86,0.00,,,0.00,Wunderground v.1.13,2013-11-21 07:12:00,
2013-11-21 02:18:00,31.5,27.8,30.40,SE,126,0.0,0.0,86,0.00,,,0.00,Wunderground v.1.13,2013-11-21 07:18:00,
2013-11-21 02:24:00,31.4,28.0,30.40,SE,126,0.0,0.0,87,0.00,,,0.00,Wunderground v.1.13,2013-11-21 07:24:00,
2013-11-21 02:29:00,31.4,28.0,30.40,SE,126,0.0,0.0,87,0.00,,,0.00,Wunderground v.1.13,2013-11-21 07:29:00,
2013-11-21 02:35:00,31.4,28.0,30.41,SE,126,0.0,0.0,87,0.00,,,0.00,Wunderground v.1.13,2013-11-21 07:35:00,
2013-11-21 02:41:00,31.4,28.0,30.41,SE,126,0.0,0.0,87,0.00,,,0.00,Wunderground v.1.13,2013-11-21 07:41:00,
2013-11-21 02:46:00,31.4,28.0,30.41,SE,126,0.0,0.0,87,0.00,,,0.00,Wunderground v.1.13,2013-11-21 07:46:00,
2013-11-21 02:52:00,31.4,28.0,30.40,SE,126,0.0,0.0,87,0.00,,,0.00,Wunderground v.1.13,2013-11-21 07:52:00,
2013-11-21 02:58:00,31.3,27.9,30.40,SE,126,0.0,0.0,87,0.00,,,0.00,Wunderground v.1.13,2013-11-21 07:58:00,
2013-11-21 03:04:00,31.3,27.9,30.40,SE,126,0.0,0.0,87,0.00,,,0.00,Wunderground v.1.13,2013-11-21 08:04:00,
2013-11-21 03:09:00,31.2,27.8,30.40,SE,126,0.0,0.0,87,0.00,,,0.00,Wunderground v.1.13,2013-11-21 08:09:00,
2013-11-21 03:15:00,31.2,27.8,30.40,SE,126,0.0,0.0,87,0.00,,,0.00,Wunderground v.1.13,2013-11-21 08:15:00,
2013-11-21 03:20:00,31.2,27.8,30.40,SE,126,0.0,0.0,87,0.00,,,0.00,Wunderground v.1.13,2013-11-21 08:20:00,
2013-11-21 03:26:00,31.2,27.8,30.40,SE,126,0.0,0.0,87,0.00,,,0.00,Wunderground v.1.13,2013-11-21 08:26:00,
2013-11-21 03:32:00,31.2,28.1,30.40,SE,126,0.0,0.0,88,0.00,,,0.00,Wunderground v.1.13,2013-11-21 08:32:00,
2013-11-21 03:38:00,31.2,28.1,30.40,SE,126,0.0,0.0,88,0.00,,,0.00,Wunderground v.1.13,2013-11-21 08:38:00,
2013-11-21 03:43:00,31.3,28.2,30.41,SE,126,0.0,0.0,88,0.00,,,0.00,Wunderground v.1.13,2013-11-21 08:43:00,
2013-11-21 03:49:00,31.5,28.4,30.41,SE,126,0.0,0.0,88,0.00,,,0.00,Wunderground v.1.13,2013-11-21 08:49:00,
2013-11-21 03:54:00,31.6,28.5,30.41,SE,126,0.0,0.0,88,0.00,,,0.00,Wunderground v.1.13,2013-11-21 08:54:00,
2013-11-21 04:00:00,31.7,28.8,30.41,SE,126,0.0,0.0,89,0.00,,,0.00,Wunderground v.1.13,2013-11-21 09:00:00,
2013-11-21 04:06:00,31.9,29.0,30.41,SE,126,0.0,0.0,89,0.00,,,0.00,Wunderground v.1.13,2013-11-21 09:06:00,
2013-11-21 04:12:00,31.9,29.0,30.41,SE,126,0.0,0.0,89,0.00,,,0.00,Wunderground v.1.13,2013-11-21 09:12:00,
2013-11-21 04:17:00,31.9,29.0,30.41,SE,126,0.0,0.0,89,0.00,,,0.00,Wunderground v.1.13,2013-11-21 09:17:00,
2013-11-21 04:23:00,31.9,28.8,30.41,SE,126,0.0,0.0,88,0.00,,,0.00,Wunderground v.1.13,2013-11-21 09:23:00,
2013-11-21 04:28:00,31.7,28.6,30.41,SE,126,0.0,0.0,88,0.00,,,0.00,Wunderground v.1.13,2013-11-21 09:28:00,
2013-11-21 04:34:00,31.7,28.6,30.42,SE,126,0.0,0.0,88,0.00,,,0.00,Wunderground v.1.13,2013-11-21 09:34:00,
2013-11-21 04:40:00,31.6,28.5,30.42,SE,126,0.0,0.0,88,0.00,,,0.00,Wunderground v.1.13,2013-11-21 09:40:00,
2013-11-21 04:46:00,31.6,28.5,30.42,SE,126,0.0,0.0,88,0.00,,,0.00,Wunderground v.1.13,2013-11-21 09:46:00,
2013-11-21 04:51:00,31.5,28.4,30.43,SE,126,0.0,0.0,88,0.00,,,0.00,Wunderground v.1.13,2013-11-21 09:51:00,
2013-11-21 04:57:00,31.4,28.3,30.43,SE,126,0.0,0.0,88,0.00,,,0.00,Wunderground v.1.13,2013-11-21 09:57:00,
2013-11-21 05:02:00,31.4,28.3,30.43,SE,126,0.0,0.0,88,0.00,,,0.00,Wunderground v.1.13,2013-11-21 10:02:00,
2013-11-21 05:07:00,31.3,28.2,30.43,SE,126,0.0,0.0,88,0.00,,,0.00,Wunderground v.1.13,2013-11-21 10:07:00,
2013-11-21 05:13:00,31.2,28.3,30.44,SE,126,0.0,0.0,89,0.00,,,0.00,Wunderground v.1.13,2013-11-21 10:13:00,
2013-11-21 05:18:00,31.2,28.1,30.44,SE,126,0.0,0.0,88,0.00,,,0.00,Wunderground v.1.13,2013-11-21 10:18:00,
2013-11-21 05:24:00,31.1,28.0,30.44,SE,126,0.0,0.0,88,0.00,,,0.00,Wunderground v.1.13,2013-11-21 10:24:00,
2013-11-21 05:30:00,31.0,27.9,30.44,SE,126,0.0,0.0,88,0.00,,,0.00,Wunderground v.1.13,2013-11-21 10:30:00,
2013-11-21 05:35:00,30.9,27.8,30.44,SE,126,0.0,0.0,88,0.00,,,0.00,Wunderground v.1.13,2013-11-21 10:35:00,
2013-11-21 05:40:00,30.8,27.9,30.44,SE,126,0.0,0.0,89,0.00,,,0.00,Wunderground v.1.13,2013-11-21 10:40:00,
2013-11-21 05:46:00,30.7,27.8,30.43,SE,126,0.0,0.0,89,0.00,,,0.00,Wunderground v.1.13,2013-11-21 10:46:00,
2013-11-21 05:51:00,30.7,27.8,30.43,SE,126,0.0,0.0,89,0.00,,,0.00,Wunderground v.1.13,2013-11-21 10:51:00,
2013-11-21 05:57:00,30.6,27.7,30.43,SE,126,0.0,0.0,89,0.00,,,0.00,Wunderground v.1.13,2013-11-21 10:57:00,
2013-11-21 06:02:00,30.6,27.7,30.43,SE,126,0.0,0.0,89,0.00,,,0.00,Wunderground v.1.13,2013-11-21 11:02:00,
2013-11-21 06:07:00,30.6,27.7,30.43,SE,126,0.0,0.0,89,0.00,,,0.00,Wunderground v.1.13,2013-11-21 11:07:00,
2013-11-21 06:13:00,31.2,28.6,30.43,SE,125,1.0,3.0,90,0.00,,,0.00,Wunderground v.1.13,2013-11-21 11:13:00,
2013-11-21 06:19:00,32.4,30.1,30.43,ESE,114,1.0,2.0,91,0.00,,,0.00,Wunderground v.1.13,2013-11-21 11:19:00,
2013-11-21 06:24:00,33.3,31.0,30.43,SE,127,1.0,5.0,91,0.00,,,0.00,Wunderground v.1.13,2013-11-21 11:24:00,
2013-11-21 06:30:00,34.4,32.0,30.43,East,96,2.0,2.0,91,0.00,,,0.00,Wunderground v.1.13,2013-11-21 11:30:00,
2013-11-21 06:35:00,35.3,32.7,30.44,ESE,102,2.0,2.0,90,0.00,,,0.00,Wunderground v.1.13,2013-11-21 11:35:00,
2013-11-21 06:40:00,35.9,32.7,30.44,East,101,2.0,3.0,88,0.00,,,0.00,Wunderground v.1.13,2013-11-21 11:40:00,
2013-11-21 06:46:00,36.5,32.7,30.44,East,101,1.0,1.0,86,0.00,,,0.00,Wunderground v.1.13,2013-11-21 11:46:00,
2013-11-21 06:52:00,36.7,32.6,30.44,East,101,0.0,0.0,85,0.00,,,0.00,Wunderground v.1.13,2013-11-21 11:52:00,
2013-11-21 06:57:00,36.8,32.4,30.44,East,101,0.0,0.0,84,0.00,,,0.00,Wunderground v.1.13,2013-11-21 11:57:00,
2013-11-21 07:03:00,36.9,32.2,30.45,East,101,0.0,0.0,83,0.00,,,0.00,Wunderground v.1.13,2013-11-21 12:03:00,
2013-11-21 07:09:00,36.8,31.8,30.45,East,101,0.0,0.0,82,0.00,,,0.00,Wunderground v.1.13,2013-11-21 12:09:00,
2013-11-21 07:14:00,36.8,31.8,30.45,East,101,0.0,0.0,82,0.00,,,0.00,Wunderground v.1.13,2013-11-21 12:14:00,
2013-11-21 07:20:00,36.6,31.6,30.45,East,101,0.0,0.0,82,0.00,,,0.00,Wunderground v.1.13,2013-11-21 12:20:00,
2013-11-21 07:25:00,36.5,31.5,30.45,East,101,0.0,0.0,82,0.00,,,0.00,Wunderground v.1.13,2013-11-21 12:25:00,
2013-11-21 07:31:00,36.5,31.8,30.46,East,101,0.0,0.0,83,0.00,,,0.00,Wunderground v.1.13,2013-11-21 12:31:00,
2013-11-21 07:37:00,36.4,31.7,30.46,East,101,0.0,0.0,83,0.00,,,0.00,Wunderground v.1.13,2013-11-21 12:37:00,
2013-11-21 07:43:00,36.3,31.6,30.46,East,101,0.0,0.0,83,0.00,,,0.00,Wunderground v.1.13,2013-11-21 12:43:00,
2013-11-21 07:48:00,36.4,32.0,30.46,East,101,0.0,0.0,84,0.00,,,0.00,Wunderground v.1.13,2013-11-21 12:48:00,
2013-11-21 07:54:00,36.6,32.2,30.46,East,101,0.0,0.0,84,0.00,,,0.00,Wunderground v.1.13,2013-11-21 12:54:00,
2013-11-21 08:00:00,37.4,33.0,30.46,East,101,0.0,0.0,84,0.00,,,0.00,Wunderground v.1.13,2013-11-21 13:00:00,
2013-11-21 08:06:00,38.5,34.1,30.47,East,101,0.0,0.0,84,0.00,,,0.00,Wunderground v.1.13,2013-11-21 13:06:00,
2013-11-21 08:11:00,39.8,34.8,30.47,East,96,1.0,3.0,82,0.00,,,0.00,Wunderground v.1.13,2013-11-21 13:11:00,
2013-11-21 08:17:00,41.0,35.0,30.47,East,99,3.0,4.0,79,0.00,,,0.00,Wunderground v.1.13,2013-11-21 13:17:00,
2013-11-21 08:22:00,42.1,35.4,30.47,ESE,103,4.0,6.0,77,0.00,,,0.00,Wunderground v.1.13,2013-11-21 13:22:00,
2013-11-21 08:28:00,42.9,35.2,30.47,ESE,113,5.0,11.0,74,0.00,,,0.00,Wunderground v.1.13,2013-11-21 13:28:00,
2013-11-21 08:34:00,43.4,35.3,30.47,ESE,123,5.0,6.0,73,0.00,,,0.00,Wunderground v.1.13,2013-11-21 13:34:00,
2013-11-21 08:39:00,43.8,35.4,30.47,ESE,108,5.0,7.0,72,0.00,,,0.00,Wunderground v.1.13,2013-11-21 13:39:00,
2013-11-21 08:45:00,44.1,35.3,30.47,ESE,110,5.0,7.0,71,0.00,,,0.00,Wunderground v.1.13,2013-11-21 13:45:00,
2013-11-21 08:50:00,44.3,35.1,30.47,ESE,121,6.0,7.0,70,0.00,,,0.00,Wunderground v.1.13,2013-11-21 13:50:00,
2013-11-21 08:56:00,44.5,35.3,30.47,ESE,105,7.0,7.0,70,0.00,,,0.00,Wunderground v.1.13,2013-11-21 13:56:00,
2013-11-21 09:02:00,44.9,35.7,30.46,ESE,113,6.0,7.0,70,0.00,,,0.00,Wunderground v.1.13,2013-11-21 14:02:00,
2013-11-21 09:08:00,45.3,36.1,30.46,East,86,5.0,6.0,70,0.00,,,0.00,Wunderground v.1.13,2013-11-21 14:08:00,
2013-11-21 09:13:00,45.9,36.7,30.46,ESE,108,5.0,5.0,70,0.00,,,0.00,Wunderground v.1.13,2013-11-21 14:13:00,
2013-11-21 09:19:00,46.5,36.9,30.46,ESE,111,4.0,5.0,69,0.00,,,0.00,Wunderground v.1.13,2013-11-21 14:19:00,
2013-11-21 09:24:00,47.3,37.6,30.46,East,90,2.0,3.0,69,0.00,,,0.00,Wunderground v.1.13,2013-11-21 14:24:00,
2013-11-21 09:30:00,48.1,38.0,30.46,East,90,1.0,1.0,68,0.00,,,0.00,Wunderground v.1.13,2013-11-21 14:30:00,
2013-11-21 09:35:00,49.0,38.1,30.46,East,90,0.0,0.0,66,0.00,,,0.00,Wunderground v.1.13,2013-11-21 14:35:00,
2013-11-21 09:40:00,49.8,39.3,30.46,East,90,0.0,0.0,67,0.00,,,0.00,Wunderground v.1.13,2013-11-21 14:40:00,
2013-11-21 09:46:00,50.8,39.8,30.46,ESE,107,1.0,3.0,66,0.00,,,0.00,Wunderground v.1.13,2013-11-21 14:46:00,
2013-11-21 09:52:00,51.3,39.9,30.45,ESE,102,3.0,6.0,65,0.00,,,0.00,Wunderground v.1.13,2013-11-21 14:52:00,
2013-11-21 09:57:00,51.5,40.1,30.45,ESE,102,3.0,5.0,65,0.00,,,0.00,Wunderground v.1.13,2013-11-21 14:57:00,
2013-11-21 10:02:00,52.0,40.6,30.45,ESE,117,4.0,4.0,65,0.00,,,0.00,Wunderground v.1.13,2013-11-21 15:02:00,
2013-11-21 10:08:00,52.4,40.6,30.45,SE,135,4.0,4.0,64,0.00,,,0.00,Wunderground v.1.13,2013-11-21 15:08:00,
2013-11-21 10:13:00,52.7,40.9,30.45,SSE,157,4.0,5.0,64,0.00,,,0.00,Wunderground v.1.13,2013-11-21 15:13:00,
2013-11-21 10:19:00,53.1,41.2,30.45,SE,127,4.0,6.0,64,0.00,,,0.00,Wunderground v.1.13,2013-11-21 15:19:00,
2013-11-21 10:24:00,53.6,41.3,30.44,ESE,123,4.0,6.0,63,0.00,,,0.00,Wunderground v.1.13,2013-11-21 15:24:00,
2013-11-21 10:30:00,53.7,41.4,30.44,SE,124,4.0,6.0,63,0.00,,,0.00,Wunderground v.1.13,2013-11-21 15:30:00,
2013-11-21 10:36:00,54.2,41.5,30.44,East,99,4.0,5.0,62,0.00,,,0.00,Wunderground v.1.13,2013-11-21 15:36:00,
2013-11-21 10:42:00,54.9,42.5,30.44,ESE,121,3.0,4.0,63,0.00,,,0.00,Wunderground v.1.13,2013-11-21 15:42:00,
2013-11-21 10:47:00,55.4,42.2,30.44,SSE,157,2.0,2.0,61,0.00,,,0.00,Wunderground v.1.13,2013-11-21 15:47:00,
2013-11-21 10:53:00,55.9,42.6,30.45,NE,42,1.0,5.0,61,0.00,,,0.00,Wunderground v.1.13,2013-11-21 15:53:00,
2013-11-21 10:58:00,56.1,42.4,30.45,ENE,63,2.0,2.0,60,0.00,,,0.00,Wunderground v.1.13,2013-11-21 15:58:00,
2013-11-21 11:03:00,56.7,43.0,30.45,NE,44,1.0,3.0,60,0.00,,,0.00,Wunderground v.1.13,2013-11-21 16:03:00,
2013-11-21 11:09:00,56.9,42.7,30.44,East,88,2.0,3.0,59,0.00,,,0.00,Wunderground v.1.13,2013-11-21 16:09:00,
2013-11-21 11:15:00,57.0,43.2,30.43,SE,130,1.0,5.0,60,0.00,,,0.00,Wunderground v.1.13,2013-11-21 16:15:00,
2013-11-21 11:20:00,57.6,43.8,30.43,ESE,113,1.0,1.0,60,0.00,,,0.00,Wunderground v.1.13,2013-11-21 16:20:00,
2013-11-21 11:26:00,58.3,44.0,30.43,East,87,1.0,5.0,59,0.00,,,0.00,Wunderground v.1.13,2013-11-21 16:26:00,
2013-11-21 11:32:00,58.5,44.2,30.43,East,98,1.0,2.0,59,0.00,,,0.00,Wunderground v.1.13,2013-11-21 16:32:00,
2013-11-21 11:38:00,59.0,44.2,30.42,ENE,63,2.0,6.0,58,0.00,,,0.00,Wunderground v.1.13,2013-11-21 16:38:00,
2013-11-21 11:43:00,59.3,44.5,30.42,ENE,67,2.0,2.0,58,0.00,,,0.00,Wunderground v.1.13,2013-11-21 16:43:00,
2013-11-21 11:49:00,59.7,44.4,30.42,East,83,2.0,4.0,57,0.00,,,0.00,Wunderground v.1.13,2013-11-21 16:49:00,
2013-11-21 11:55:00,59.8,44.5,30.42,ENE,58,2.0,4.0,57,0.00,,,0.00,Wunderground v.1.13,2013-11-21 16:55:00,
2013-11-21 12:00:00,60.2,44.9,30.42,NNE,29,2.0,2.0,57,0.00,,,0.00,Wunderground v.1.13,2013-11-21 17:00:00,
2013-11-21 12:05:00,60.6,45.3,30.41,ENE,77,1.0,1.0,57,0.00,,,0.00,Wunderground v.1.13,2013-11-21 17:05:00,
2013-11-21 12:11:00,61.3,45.5,30.41,SE,125,0.0,0.0,56,0.00,,,0.00,Wunderground v.1.13,2013-11-21 17:11:00,
2013-11-21 12:17:00,61.8,45.5,30.41,ESE,102,1.0,5.0,55,0.00,,,0.00,Wunderground v.1.13,2013-11-21 17:17:00,
2013-11-21 12:22:00,61.9,45.5,30.40,ESE,105,2.0,2.0,55,0.00,,,0.00,Wunderground v.1.13,2013-11-21 17:22:00,
2013-11-21 12:28:00,62.3,45.9,30.40,NE,49,2.0,5.0,55,0.00,,,0.00,Wunderground v.1.13,2013-11-21 17:28:00,
2013-11-21 12:34:00,62.6,46.2,30.40,NE,46,2.0,6.0,55,0.00,,,0.00,Wunderground v.1.13,2013-11-21 17:34:00,
2013-11-21 12:39:00,62.8,45.9,30.40,NE,40,2.0,4.0,54,0.00,,,0.00,Wunderground v.1.13,2013-11-21 17:39:00,
2013-11-21 12:45:00,63.3,46.9,30.39,NE,47,1.0,4.0,55,0.00,,,0.00,Wunderground v.1.13,2013-11-21 17:45:00,
2013-11-21 12:51:00,63.7,46.7,30.39,NNW,334,1.0,4.0,54,0.00,,,0.00,Wunderground v.1.13,2013-11-21 17:51:00,
2013-11-21 12:56:00,64.0,46.5,30.39,NW,323,2.0,5.0,53,0.00,,,0.00,Wunderground v.1.13,2013-11-21 17:56:00,
2013-11-21 13:01:00,64.2,46.7,30.38,NNW,343,3.0,7.0,53,0.00,,,0.00,Wunderground v.1.13,2013-11-21 18:01:00,
2013-11-21 13:07:00,64.1,46.6,30.38,NNW,348,4.0,4.0,53,0.00,,,0.00,Wunderground v.1.13,2013-11-21 18:07:00,
2013-11-21 13:12:00,64.3,46.8,30.38,NNW,344,2.0,3.0,53,0.00,,,0.00,Wunderground v.1.13,2013-11-21 18:12:00,
2013-11-21 13:18:00,65.0,46.9,30.37,NNW,337,2.0,3.0,52,0.00,,,0.00,Wunderground v.1.13,2013-11-21 18:18:00,
2013-11-21 13:24:00,65.3,47.2,30.37,NNW,334,3.0,7.0,52,0.00,,,0.00,Wunderground v.1.13,2013-11-21 18:24:00,
2013-11-21 13:29:00,65.2,47.1,30.37,NNW,335,4.0,6.0,52,0.00,,,0.00,Wunderground v.1.13,2013-11-21 18:29:00,
2013-11-21 13:35:00,65.2,47.1,30.36,NW,314,4.0,7.0,52,0.00,,,0.00,Wunderground v.1.13,2013-11-21 18:35:00,
2013-11-21 13:41:00,65.2,47.1,30.36,NW,317,4.0,4.0,52,0.00,,,0.00,Wunderground v.1.13,2013-11-21 18:41:00,
2013-11-21 13:46:00,65.2,47.1,30.36,NNW,334,3.0,5.0,52,0.00,,,0.00,Wunderground v.1.13,2013-11-21 18:46:00,
2013-11-21 13:52:00,65.1,47.5,30.36,NW,326,5.0,6.0,53,0.00,,,0.00,Wunderground v.1.13,2013-11-21 18:52:00,
2013-11-21 13:58:00,65.2,47.6,30.35,NW,322,5.0,6.0,53,0.00,,,0.00,Wunderground v.1.13,2013-11-21 18:58:00,
2013-11-21 14:03:00,65.5,47.9,30.35,NW,319,5.0,7.0,53,0.00,,,0.00,Wunderground v.1.13,2013-11-21 19:03:00,
2013-11-21 14:08:00,65.8,47.7,30.35,NW,321,5.0,5.0,52,0.00,,,0.00,Wunderground v.1.13,2013-11-21 19:08:00,
2013-11-21 14:14:00,65.9,47.8,30.35,NW,324,5.0,7.0,52,0.00,,,0.00,Wunderground v.1.13,2013-11-21 19:14:00,
2013-11-21 14:19:00,65.8,47.7,30.35,NNW,340,4.0,5.0,52,0.00,,,0.00,Wunderground v.1.13,2013-11-21 19:19:00,
2013-11-21 14:25:00,66.0,47.9,30.34,NNW,342,3.0,3.0,52,0.00,,,0.00,Wunderground v.1.13,2013-11-21 19:25:00,
2013-11-21 14:31:00,66.3,48.1,30.34,NNW,341,2.0,4.0,52,0.00,,,0.00,Wunderground v.1.13,2013-11-21 19:31:00,
2013-11-21 14:37:00,66.7,49.0,30.34,NNW,335,2.0,4.0,53,0.00,,,0.00,Wunderground v.1.13,2013-11-21 19:37:00,
2013-11-21 14:42:00,67.1,48.4,30.34,NNW,333,2.0,5.0,51,0.00,,,0.00,Wunderground v.1.13,2013-11-21 19:42:00,
2013-11-21 14:48:00,67.5,48.7,30.34,NNW,333,2.0,4.0,51,0.00,,,0.00,Wunderground v.1.13,2013-11-21 19:48:00,
2013-11-21 14:53:00,67.5,48.7,30.34,NNW,333,2.0,4.0,51,0.00,,,0.00,Wunderground v.1.13,2013-11-21 19:53:00,
2013-11-21 14:59:00,67.5,48.7,30.33,NNW,333,2.0,3.0,51,0.00,,,0.00,Wunderground v.1.13,2013-11-21 19:59:00,
2013-11-21 15:05:00,67.6,48.8,30.33,NNW,333,1.0,2.0,51,0.00,,,0.00,Wunderground v.1.13,2013-11-21 20:05:00,
2013-11-21 15:11:00,67.8,49.0,30.33,NNW,333,1.0,2.0,51,0.00,,,0.00,Wunderground v.1.13,2013-11-21 20:11:00,
2013-11-21 15:16:00,68.0,49.2,30.33,NNW,333,1.0,2.0,51,0.00,,,0.00,Wunderground v.1.13,2013-11-21 20:16:00,
2013-11-21 15:22:00,68.2,48.8,30.33,NNW,333,1.0,1.0,50,0.00,,,0.00,Wunderground v.1.13,2013-11-21 20:22:00,
2013-11-21 15:27:00,68.3,48.9,30.33,NNW,333,0.0,0.0,50,0.00,,,0.00,Wunderground v.1.13,2013-11-21 20:27:00,
2013-11-21 15:33:00,68.6,49.2,30.33,NNW,333,0.0,2.0,50,0.00,,,0.00,Wunderground v.1.13,2013-11-21 20:33:00,
2013-11-21 15:39:00,68.5,49.1,30.33,NNW,333,1.0,3.0,50,0.00,,,0.00,Wunderground v.1.13,2013-11-21 20:39:00,
2013-11-21 15:45:00,68.6,49.7,30.34,NNW,333,0.0,2.0,51,0.00,,,0.00,Wunderground v.1.13,2013-11-21 20:45:00,
2013-11-21 15:50:00,68.7,49.8,30.34,NNW,333,1.0,1.0,51,0.00,,,0.00,Wunderground v.1.13,2013-11-21 20:50:00,
2013-11-21 15:56:00,68.5,50.2,30.34,NNW,333,2.0,2.0,52,0.00,,,0.00,Wunderground v.1.13,2013-11-21 20:56:00,
2013-11-21 16:02:00,68.2,49.9,30.34,NNW,333,3.0,5.0,52,0.00,,,0.00,Wunderground v.1.13,2013-11-21 21:02:00,
2013-11-21 16:08:00,67.9,49.6,30.34,NNW,333,3.0,3.0,52,0.00,,,0.00,Wunderground v.1.13,2013-11-21 21:08:00,
2013-11-21 16:13:00,67.6,49.3,30.34,NNW,333,2.0,3.0,52,0.00,,,0.00,Wunderground v.1.13,2013-11-21 21:13:00,
2013-11-21 16:19:00,67.2,50.0,30.33,NNW,333,1.0,3.0,54,0.00,,,0.00,Wunderground v.1.13,2013-11-21 21:19:00,
2013-11-21 16:24:00,67.0,49.3,30.33,NNW,333,1.0,3.0,53,0.00,,,0.00,Wunderground v.1.13,2013-11-21 21:24:00,
2013-11-21 16:30:00,66.9,49.7,30.33,NNW,333,1.0,1.0,54,0.00,,,0.00,Wunderground v.1.13,2013-11-21 21:30:00,
2013-11-21 16:35:00,66.9,49.7,30.33,NNW,333,0.0,0.0,54,0.00,,,0.00,Wunderground v.1.13,2013-11-21 21:35:00,
2013-11-21 16:40:00,66.8,50.1,30.33,NNW,333,0.0,0.0,55,0.00,,,0.00,Wunderground v.1.13,2013-11-21 21:40:00,
2013-11-21 16:46:00,66.6,49.9,30.33,NNW,333,0.0,0.0,55,0.00,,,0.00,Wunderground v.1.13,2013-11-21 21:46:00,
2013-11-21 16:52:00,66.5,49.8,30.33,NNW,333,0.0,0.0,55,0.00,,,0.00,Wunderground v.1.13,2013-11-21 21:52:00,
2013-11-21 16:57:00,66.4,50.2,30.33,NNW,333,0.0,0.0,56,0.00,,,0.00,Wunderground v.1.13,2013-11-21 21:57:00,
2013-11-21 17:02:00,66.2,50.0,30.34,NNW,333,0.0,0.0,56,0.00,,,0.00,Wunderground v.1.13,2013-11-21 22:02:00,
2013-11-21 17:08:00,65.9,50.2,30.34,NNW,333,1.0,2.0,57,0.00,,,0.00,Wunderground v.1.13,2013-11-21 22:08:00,
2013-11-21 17:13:00,65.5,49.4,30.34,NNW,333,1.0,2.0,56,0.00,,,0.00,Wunderground v.1.13,2013-11-21 22:13:00,
2013-11-21 17:19:00,65.1,49.5,30.34,NNW,333,0.0,1.0,57,0.00,,,0.00,Wunderground v.1.13,2013-11-21 22:19:00,
2013-11-21 17:24:00,64.7,50.0,30.34,NNW,333,0.0,0.0,59,0.00,,,0.00,Wunderground v.1.13,2013-11-21 22:24:00,
2013-11-21 17:30:00,64.2,50.0,30.34,NNW,333,0.0,0.0,60,0.00,,,0.00,Wunderground v.1.13,2013-11-21 22:30:00,
2013-11-21 17:35:00,63.8,49.6,30.34,NNW,333,0.0,0.0,60,0.00,,,0.00,Wunderground v.1.13,2013-11-21 22:35:00,
2013-11-21 17:41:00,63.5,49.8,30.34,NNW,333,0.0,0.0,61,0.00,,,0.00,Wunderground v.1.13,2013-11-21 22:41:00,
2013-11-21 17:46:00,63.2,49.5,30.34,NNW,333,0.0,0.0,61,0.00,,,0.00,Wunderground v.1.13,2013-11-21 22:46:00,
2013-11-21 17:52:00,62.9,49.7,30.34,NNW,333,0.0,0.0,62,0.00,,,0.00,Wunderground v.1.13,2013-11-21 22:52:00,
2013-11-21 17:57:00,62.6,49.4,30.34,NNW,333,0.0,0.0,62,0.00,,,0.00,Wunderground v.1.13,2013-11-21 22:57:00,
2013-11-21 18:02:00,62.3,49.5,30.35,NNW,333,0.0,0.0,63,0.00,,,0.00,Wunderground v.1.13,2013-11-21 23:02:00,
2013-11-21 18:08:00,61.8,49.5,30.35,NNW,333,0.0,0.0,64,0.00,,,0.00,Wunderground v.1.13,2013-11-21 23:08:00,
2013-11-21 18:14:00,61.6,49.7,30.35,NNW,333,0.0,0.0,65,0.00,,,0.00,Wunderground v.1.13,2013-11-21 23:14:00,
2013-11-21 18:19:00,61.1,49.7,30.35,NNW,333,0.0,0.0,66,0.00,,,0.00,Wunderground v.1.13,2013-11-21 23:19:00,
2013-11-21 18:25:00,60.6,49.2,30.35,NNW,333,0.0,0.0,66,0.00,,,0.00,Wunderground v.1.13,2013-11-21 23:25:00,
2013-11-21 18:31:00,60.2,48.8,30.35,NNW,333,0.0,0.0,66,0.00,,,0.00,Wunderground v.1.13,2013-11-21 23:31:00,
2013-11-21 18:37:00,59.8,48.8,30.34,NNW,333,0.0,0.0,67,0.00,,,0.00,Wunderground v.1.13,2013-11-21 23:37:00,
2013-11-21 18:42:00,59.1,48.5,30.35,NNW,333,0.0,0.0,68,0.00,,,0.00,Wunderground v.1.13,2013-11-21 23:42:00,
2013-11-21 18:48:00,58.5,48.4,30.35,NNW,333,0.0,0.0,69,0.00,,,0.00,Wunderground v.1.13,2013-11-21 23:48:00,
2013-11-21 18:54:00,58.1,48.0,30.35,NNW,333,0.0,0.0,69,0.00,,,0.00,Wunderground v.1.13,2013-11-21 23:54:00,
2013-11-21 18:59:00,57.7,48.0,30.35,NNW,333,0.0,0.0,70,0.00,,,0.00,Wunderground v.1.13,2013-11-21 23:59:00,
2013-11-21 19:04:00,57.3,47.6,30.35,NNW,333,0.0,0.0,70,0.00,,,0.00,Wunderground v.1.13,2013-11-22 00:04:00,
2013-11-21 19:10:00,56.8,47.1,30.36,NNW,333,0.0,0.0,70,0.00,,,0.00,Wunderground v.1.13,2013-11-22 00:10:00,
2013-11-21 19:15:00,56.4,47.1,30.36,NNW,333,0.0,0.0,71,0.00,,,0.00,Wunderground v.1.13,2013-11-22 00:15:00,
2013-11-21 19:21:00,55.9,46.6,30.36,NNW,333,0.0,0.0,71,0.00,,,0.00,Wunderground v.1.13,2013-11-22 00:21:00,
2013-11-21 19:26:00,55.4,46.5,30.35,NNW,333,0.0,0.0,72,0.00,,,0.00,Wunderground v.1.13,2013-11-22 00:26:00,
2013-11-21 19:31:00,55.0,46.5,30.36,NNW,333,0.0,0.0,73,0.00,,,0.00,Wunderground v.1.13,2013-11-22 00:31:00,
2013-11-21 19:37:00,54.5,46.4,30.36,NNW,333,0.0,0.0,74,0.00,,,0.00,Wunderground v.1.13,2013-11-22 00:37:00,
2013-11-21 19:43:00,54.0,45.9,30.36,NNW,333,0.0,0.0,74,0.00,,,0.00,Wunderground v.1.13,2013-11-22 00:43:00,
2013-11-21 19:49:00,53.4,45.7,30.36,NNW,333,0.0,0.0,75,0.00,,,0.00,Wunderground v.1.13,2013-11-22 00:49:00,
2013-11-21 19:54:00,53.0,45.6,30.36,NNW,333,0.0,0.0,76,0.00,,,0.00,Wunderground v.1.13,2013-11-22 00:54:00,
2013-11-21 20:00:00,52.6,45.2,30.36,NNW,333,0.0,0.0,76,0.00,,,0.00,Wunderground v.1.13,2013-11-22 01:00:00,
2013-11-21 20:05:00,52.2,45.2,30.36,NNW,333,0.0,0.0,77,0.00,,,0.00,Wunderground v.1.13,2013-11-22 01:05:00,
2013-11-21 20:11:00,51.7,44.7,30.37,NNW,333,0.0,0.0,77,0.00,,,0.00,Wunderground v.1.13,2013-11-22 01:11:00,
2013-11-21 20:16:00,51.3,44.3,30.37,NNW,333,0.0,0.0,77,0.00,,,0.00,Wunderground v.1.13,2013-11-22 01:16:00,
2013-11-21 20:22:00,51.0,44.4,30.37,NNW,333,0.0,0.0,78,0.00,,,0.00,Wunderground v.1.13,2013-11-22 01:22:00,
2013-11-21 20:27:00,50.7,44.1,30.37,NNW,333,0.0,0.0,78,0.00,,,0.00,Wunderground v.1.13,2013-11-22 01:27:00,
2013-11-21 20:32:00,50.3,43.7,30.37,NNW,333,0.0,0.0,78,0.00,,,0.00,Wunderground v.1.13,2013-11-22 01:32:00,
2013-11-21 20:38:00,50.0,43.4,30.38,NNW,333,0.0,0.0,78,0.00,,,0.00,Wunderground v.1.13,2013-11-22 01:38:00,
2013-11-21 20:43:00,49.7,43.5,30.38,NNW,333,0.0,0.0,79,0.00,,,0.00,Wunderground v.1.13,2013-11-22 01:43:00,
2013-11-21 20:49:00,49.2,43.3,30.39,NNW,333,0.0,0.0,80,0.00,,,0.00,Wunderground v.1.13,2013-11-22 01:49:00,
2013-11-21 20:55:00,48.9,43.0,30.39,NNW,333,0.0,0.0,80,0.00,,,0.00,Wunderground v.1.13,2013-11-22 01:55:00,
2013-11-21 21:00:00,48.6,43.0,30.39,NNW,333,0.0,0.0,81,0.00,,,0.00,Wunderground v.1.13,2013-11-22 02:00:00,
2013-11-21 21:06:00,48.3,42.7,30.39,NNW,333,0.0,0.0,81,0.00,,,0.00,Wunderground v.1.13,2013-11-22 02:06:00,
2013-11-21 21:09:00,48.2,42.6,30.39,NNW,333,0.0,0.0,81,0.00,,,0.00,Wunderground v.1.13,2013-11-22 02:09:00,
2013-11-21 21:10:00,48.1,42.5,30.39,NNW,333,0.0,0.0,81,0.00,,,0.00,Wunderground v.1.13,2013-11-22 02:10:00,
2013-11-21 21:11:00,48.1,42.5,30.39,NNW,333,0.0,0.0,81,0.00,,,0.00,Wunderground v.1.13,2013-11-22 02:11:00,
2013-11-21 21:13:00,48.0,42.4,30.40,NNW,333,0.0,0.0,81,0.00,,,0.00,Wunderground v.1.13,2013-11-22 02:13:00,
2013-11-21 21:17:00,47.7,42.2,30.40,NNW,333,0.0,0.0,81,0.00,,,0.00,Wunderground v.1.13,2013-11-22 02:17:00,
2013-11-21 21:23:00,47.4,42.2,30.40,NNW,333,0.0,0.0,82,0.00,,,0.00,Wunderground v.1.13,2013-11-22 02:23:00,
2013-11-21 21:29:00,47.1,41.9,30.40,NNW,333,0.0,0.0,82,0.00,,,0.00,Wunderground v.1.13,2013-11-22 02:29:00,
2013-11-21 21:34:00,46.9,42.0,30.40,NNW,333,0.0,0.0,83,0.00,,,0.00,Wunderground v.1.13,2013-11-22 02:34:00,
2013-11-21 21:39:00,46.6,41.7,30.41,NNW,333,0.0,0.0,83,0.00,,,0.00,Wunderground v.1.13,2013-11-22 02:39:00,
2013-11-21 21:45:00,46.4,41.8,30.41,NNW,333,0.0,0.0,84,0.00,,,0.00,Wunderground v.1.13,2013-11-22 02:45:00,
2013-11-21 21:51:00,46.2,41.6,30.41,NNW,333,0.0,0.0,84,0.00,,,0.00,Wunderground v.1.13,2013-11-22 02:51:00,
2013-11-21 21:56:00,46.2,41.9,30.40,NNW,333,0.0,1.0,85,0.00,,,0.00,Wunderground v.1.13,2013-11-22 02:56:00,
2013-11-21 22:02:00,46.1,41.8,30.40,NNW,333,0.0,0.0,85,0.00,,,0.00,Wunderground v.1.13,2013-11-22 03:02:00,
2013-11-21 22:08:00,46.0,42.0,30.41,NNW,333,0.0,0.0,86,0.00,,,0.00,Wunderground v.1.13,2013-11-22 03:08:00,
2013-11-21 22:14:00,46.0,42.0,30.41,NNW,333,0.0,0.0,86,0.00,,,0.00,Wunderground v.1.13,2013-11-22 03:14:00,
2013-11-21 22:19:00,46.2,42.5,30.40,NNW,333,0.0,0.0,87,0.00,,,0.00,Wunderground v.1.13,2013-11-22 03:19:00,
2013-11-21 22:25:00,46.3,42.6,30.41,NNW,333,0.0,0.0,87,0.00,,,0.00,Wunderground v.1.13,2013-11-22 03:25:00,
2013-11-21 22:31:00,46.3,42.6,30.41,NNW,333,0.0,0.0,87,0.00,,,0.00,Wunderground v.1.13,2013-11-22 03:31:00,
2013-11-21 22:37:00,46.3,42.6,30.41,NNW,333,0.0,0.0,87,0.00,,,0.00,Wunderground v.1.13,2013-11-22 03:37:00,
2013-11-21 22:42:00,46.3,42.6,30.40,NNW,333,0.0,0.0,87,0.00,,,0.00,Wunderground v.1.13,2013-11-22 03:42:00,
2013-11-21 22:48:00,46.3,42.6,30.40,NNW,333,0.0,0.0,87,0.00,,,0.00,Wunderground v.1.13,2013-11-22 03:48:00,
2013-11-21 22:54:00,46.4,43.0,30.40,NNW,333,0.0,0.0,88,0.00,,,0.00,Wunderground v.1.13,2013-11-22 03:54:00,
2013-11-21 22:59:00,46.5,43.1,30.40,NNW,333,0.0,0.0,88,0.00,,,0.00,Wunderground v.1.13,2013-11-22 03:59:00,
2013-11-21 23:05:00,46.7,43.3,30.40,NNW,333,0.0,0.0,88,0.00,,,0.00,Wunderground v.1.13,2013-11-22 04:05:00,
2013-11-21 23:11:00,46.8,43.4,30.40,NNW,333,0.0,0.0,88,0.00,,,0.00,Wunderground v.1.13,2013-11-22 04:11:00,
2013-11-21 23:17:00,46.9,43.5,30.40,NNW,333,0.0,0.0,88,0.00,,,0.00,Wunderground v.1.13,2013-11-22 04:17:00,
2013-11-21 23:22:00,46.9,43.5,30.40,NNW,333,0.0,0.0,88,0.00,,,0.00,Wunderground v.1.13,2013-11-22 04:22:00,
2013-11-21 23:28:00,47.0,43.6,30.40,NNW,333,0.0,0.0,88,0.00,,,0.00,Wunderground v.1.13,2013-11-22 04:28:00,
2013-11-21 23:33:00,47.0,43.6,30.40,NNW,333,0.0,0.0,88,0.00,,,0.00,Wunderground v.1.13,2013-11-22 04:33:00,
2013-11-21 23:39:00,47.2,43.8,30.40,NNW,333,0.0,0.0,88,0.00,,,0.00,Wunderground v.1.13,2013-11-22 04:39:00,
2013-11-21 23:44:00,47.2,43.8,30.40,NNW,333,0.0,0.0,88,0.00,,,0.00,Wunderground v.1.13,2013-11-22 04:44:00,
2013-11-21 23:50:00,47.3,43.9,30.40,NNW,333,0.0,0.0,88,0.00,,,0.00,Wunderground v.1.13,2013-11-22 04:50:00,
2013-11-21 23:55:00,47.4,44.0,30.39,NNW,333,0.0,0.0,88,0.00,,,0.00,Wunderground v.1.13,2013-11-22 04:55:00,